QPF
0.00 0.00 0.00 0.00 0.00 0.00 0.00 0.00 0.00 0.00 0.00 0.00 0.00 0.00 0.00 0.00 0.00 0.00 0.01 0.01 0.01 0.01 0.01 0.01 0.01 0.00 0.00 0.01 0.01 0.01 0.02 0.03 0.02 0.02 0.03 0.04 0.05 0.05 0.07 0.08 0.07 0.06 0.06
0.00 0.00 0.00 0.00 0.00 0.00 0.00 0.00 0.00 0.00 0.00 0.00 0.00 0.00 0.00 0.00 0.00 0.00 0.00 0.00 0.00 0.00 0.00 0.00 0.00 0.00 0.00 0.01 0.00 0.01 0.02 0.03 0.02 0.02 0.03 0.03 0.04 0.03 0.04 0.06 0.06 0.05 0.04
0.00 0.00 0.00 0.00 0.00 0.00 0.00 0.00 0.00 0.00 0.00 0.00 0.00 0.00 0.00 0.00 0.00 0.00 0.00 0.00 0.00 0.00 0.00 0.00 0.00 0.00 0.00 0.00 0.00 0.01 0.02 0.02 0.02 0.03 0.03 0.03 0.03 0.03 0.03 0.03 0.04 0.04 0.04
0.00 0.00 0.00 0.00 0.00 0.00 0.00 0.00 0.00 0.00 0.00 0.00 0.00 0.00 0.00 0.00 0.01 0.00 0.00 0.00 0.00 0.00 0.00 0.00 0.01 0.01 0.01 0.01 0.01 0.02 0.03 0.02 0.02 0.02 0.03 0.04 0.03 0.04 0.03 0.03 0.03 0.04 0.05
0.00 0.00 0.00 0.00 0.00 0.00 0.00 0.00 0.00 0.00 0.00 0.00 0.00 0.00 0.00 0.00 0.00 0.00 0.00 0.01 0.01 0.01 0.00 0.00 0.00 0.00 0.01 0.01 0.01 0.02 0.02 0.02 0.02 0.02 0.03 0.04 0.03 0.04 0.04 0.03 0.04 0.04 0.05
0.00 0.00 0.00 0.00 0.00 0.00 0.00 0.00 0.00 0.00 0.00 0.00 0.00 0.00 0.00 0.00 0.00 0.00 0.00 0.00 0.00 0.01 0.01 0.01 0.00 0.00 0.00 0.01 0.01 0.02 0.02 0.02 0.02 0.03 0.03 0.03 0.02 0.02 0.04 0.05 0.05 0.04 0.04
0.00 0.00 0.00 0.00 0.00 0.00 0.00 0.00 0.00 0.00 0.00 0.00 0.00 0.00 0.00 0.00 0.00 0.00 0.00 0.00 0.00 0.00 0.00 0.01 0.01 0.01 0.00 0.00 0.00 0.01 0.02 0.01 0.02 0.02 0.02 0.03 0.03 0.02 0.04 0.04 0.05 0.05 0.04
0.00 0.00 0.00 0.00 0.00 0.00 0.00 0.00 0.00 0.00 0.00 0.00 0.00 0.00 0.00 0.00 0.00 0.00 0.00 0.00 0.00 0.00 0.00 0.00 0.00 0.00 0.00 0.00 0.00 0.01 0.01 0.01 0.01 0.01 0.01 0.02 0.02 0.01 0.02 0.04 0.05 0.05 0.05
0.00 0.00 0.00 0.00 0.00 0.00 0.00 0.00 0.00 0.00 0.00 0.00 0.00 0.00 0.00 0.00 0.00 0.00 0.00 0.00 0.00 0.00 0.00 0.00 0.00 0.00 0.00 0.00 0.00 0.01 0.01 0.01 0.01 0.02 0.02 0.02 0.03 0.02 0.02 0.03 0.04 0.04 0.06
0.00 0.00 0.00 0.00 0.00 0.00 0.00 0.00 0.00 0.00 0.00 0.00 0.00 0.00 0.00 0.00 0.00 0.00 0.00 0.00 0.00 0.00 0.00 0.00 0.00 0.01 0.01 0.00 0.00 0.00 0.01 0.01 0.01 0.02 0.02 0.02 0.03 0.02 0.01 0.02 0.03 0.04 0.05
0.00 0.00 0.00 0.00 0.00 0.00 0.00 0.00 0.00 0.00 0.00 0.00 0.00 0.00 0.00 0.00 0.00 0.00 0.00 0.00 0.00 0.01 0.01 0.00 0.00 0.00 0.00 0.00 0.00 0.00 0.02 0.02 0.01 0.01 0.01 0.02 0.03 0.02 0.02 0.03 0.03 0.03 0.04
0.00 0.00 0.00 0.00 0.00 0.00 0.00 0.00 0.00 0.00 0.00 0.00 0.00 0.00 0.00 0.00 0.00 0.00 0.00 0.00 0.00 0.00 0.01 0.01 0.00 0.00 0.00 0.00 0.00 0.00 0.01 0.02 0.01 0.01 0.01 0.01 0.02 0.02 0.02 0.03 0.03 0.02 0.02
0.00 0.00 0.00 0.00 0.00 0.00 0.00 0.00 0.00 0.00 0.00 0.00 0.00 0.00 0.00 0.00 0.00 0.00 0.00 0.00 0.00 0.00 0.01 0.01 0.00 0.01 0.01 0.01 0.00 0.00 0.00 0.00 0.01 0.01 0.01 0.01 0.01 0.02 0.02 0.02 0.02 0.03 0.02
0.00 0.00 0.00 0.00 0.00 0.00 0.00 0.00 0.00 0.00 0.00 0.00 0.00 0.00 0.00 0.00 0.00 0.00 0.00 0.00 0.00 0.00 0.00 0.00 0.00 0.00 0.01 0.01 0.00 0.00 0.00 0.00 0.00 0.00 0.00 0.01 0.01 0.02 0.02 0.01 0.02 0.02 0.02
0.00 0.00 0.00 0.00 0.00 0.00 0.00 0.00 0.00 0.00 0.00 0.00 0.00 0.00 0.00 0.00 0.00 0.00 0.00 0.00 0.00 0.00 0.00 0.00 0.00 0.00 0.00 0.00 0.00 0.00 0.00 0.00 0.00 0.00 0.00 0.01 0.01 0.01 0.01 0.01 0.01 0.01 0.01
0.00 0.00 0.00 0.00 0.00 0.00 0.00 0.00 0.00 0.00 0.01 0.00 0.00 0.00 0.00 0.00 0.00 0.00 0.00 0.00 0.00 0.00 0.00 0.00 0.00 0.00 0.00 0.00 0.00 0.00 0.00 0.00 0.00 0.00 0.00 0.00 0.01 0.01 0.00 0.00 0.00 0.00 0.00
0.00 0.00 0.00 0.00 0.00 0.00 0.00 0.00 0.00 0.01 0.01 0.01 0.00 0.00 0.00 0.00 0.00 0.00 0.00 0.00 0.00 0.00 0.00 0.00 0.00 0.00 0.00 0.00 0.00 0.00 0.00 0.00 0.00 0.00 0.00 0.00 0.00 0.00 0.00 0.00 0.00 0.00 0.00
0.00 0.00 0.00 0.00 0.00 0.00 0.00 0.00 0.00 0.01 0.01 0.01 0.01 0.00 0.00 0.00 0.01 0.01 0.01 0.00 0.00 0.00 0.00 0.00 0.00 0.00 0.00 0.00 0.00 0.00 0.00 0.00 0.00 0.00 0.00 0.00 0.00 0.00 0.00 0.00 0.00 0.00 0.00
0.00 0.00 0.00 0.00 0.00 0.00 0.00 0.00 0.00 0.01 0.01 0.01 0.01 0.01 0.01 0.01 0.01 0.01 0.01 0.01 0.01 0.01 0.01 0.01 0.00 0.00 0.00 0.00 0.00 0.00 0.00 0.00 0.00 0.00 0.00 0.01 0.00 0.00 0.00 0.00 0.00 0.00 0.00
0.00 0.00 0.00 0.00 0.00 0.00 0.00 0.00 0.01 0.01 0.01 0.01 0.01 0.01 0.01 0.02 0.02 0.02 0.02 0.02 0.01 0.01 0.00 0.00 0.01 0.00 0.00 0.00 0.00 0.00 0.00 0.00 0.00 0.00 0.00 0.00 0.00 0.00 0.00 0.00 0.00 0.00 0.00
0.00 0.00 0.00 0.00 0.00 0.00 0.00 0.01 0.01 0.01 0.01 0.01 0.01 0.01 0.02 0.01 0.02 0.02 0.02 0.02 0.02 0.01 0.01 0.01 0.01 0.01 0.01 0.00 0.00 0.00 0.00 0.00 0.00 0.00 0.00 0.00 0.00 0.00 0.00 0.00 0.00 0.00 0.00
0.00 0.00 0.00 0.00 0.00 0.00 0.00 0.00 0.01 0.01 0.01 0.01 0.01 0.02 0.02 0.02 0.02 0.02 0.02 0.03 0.03 0.04 0.04 0.03 0.02 0.02 0.01 0.01 0.00 0.00 0.00 0.00 0.00 0.00 0.00 0.00 0.00 0.00 0.00 0.00 0.00 0.00 0.00
0.00 0.00 0.00 0.00 0.01 0.01 0.01 0.01 0.01 0.01 0.01 0.01 0.01 0.02 0.02 0.02 0.02 0.02 0.03 0.03 0.03 0.03 0.04 0.04 0.05 0.04 0.03 0.02 0.01 0.00 0.01 0.01 0.00 0.00 0.00 0.00 0.00 0.00 0.00 0.00 0.00 0.00 0.00
0.01 0.01 0.01 0.01 0.01 0.01 0.01 0.01 0.01 0.01 0.02 0.01 0.01 0.02 0.02 0.02 0.02 0.02 0.02 0.03 0.03 0.03 0.03 0.03 0.03 0.03 0.03 0.02 0.01 0.01 0.01 0.01 0.01 0.01 0.00 0.00 0.00 0.00 0.00 0.00 0.00 0.00 0.00
0.02 0.01 0.01 0.01 0.01 0.01 0.01 0.02 0.02 0.02 0.02 0.03 0.02 0.02 0.02 0.02 0.02 0.02 0.02 0.02 0.03 0.03 0.03 0.02 0.02 0.01 0.01 0.01 0.01 0.01 0.01 0.01 0.01 0.01 0.01 0.00 0.00 0.00 0.00 0.00 0.00 0.00 0.00
0.02 0.01 0.01 0.01 0.01 0.01 0.02 0.02 0.03 0.03 0.04 0.04 0.04 0.03 0.03 0.03 0.03 0.02 0.02 0.03 0.03 0.03 0.02 0.02 0.02 0.02 0.01 0.01 0.01 0.01 0.01 0.00 0.00 0.00 0.00 0.00 0.00 0.00 0.00 0.00 0.00 0.00 0.00
MSLP
1012.42 1012.66 1012.90 1013.13 1013.29 1013.39 1013.41 1013.38 1013.31 1013.25 1013.20 1013.18 1013.19 1013.23 1013.26 1013.28 1013.27 1013.21 1013.11 1012.98 1012.83 1012.69 1012.58 1012.50 1012.46 1012.45 1012.47 1012.51 1012.56 1012.60 1012.63 1012.66 1012.68 1012.70 1012.72 1012.74 1012.77 1012.81 1012.84 1012.88 1012.92 1012.97 1013.03
1012.01 1012.20 1012.41 1012.61 1012.78 1012.88 1012.94 1012.95 1012.94 1012.92 1012.93 1012.95 1013.01 1013.07 1013.14 1013.18 1013.19 1013.16 1013.09 1012.98 1012.86 1012.74 1012.63 1012.56 1012.51 1012.50 1012.51 1012.54 1012.59 1012.65 1012.70 1012.77 1012.83 1012.90 1012.98 1013.06 1013.14 1013.21 1013.27 1013.32 1013.36 1013.40 1013.44
1011.69 1011.81 1011.97 1012.13 1012.27 1012.38 1012.45 1012.50 1012.53 1012.57 1012.62 1012.70 1012.79 1012.88 1012.98 1013.05 1013.08 1013.08 1013.04 1012.97 1012.88 1012.79 1012.70 1012.64 1012.60 1012.58 1012.59 1012.62 1012.66 1012.72 1012.80 1012.89 1012.99 1013.10 1013.23 1013.36 1013.48 1013.59 1013.68 1013.75 1013.80 1013.84 1013.86
1011.49 1011.53 1011.61 1011.71 1011.81 1011.90 1011.97 1012.03 1012.10 1012.18 1012.27 1012.38 1012.50 1012.63 1012.75 1012.84 1012.90 1012.93 1012.93 1012.90 1012.85 1012.80 1012.75 1012.71 1012.68 1012.68 1012.68 1012.71 1012.75 1012.81 1012.89 1012.99 1013.12 1013.27 1013.43 1013.60 1013.76 1013.90 1014.03 1014.12 1014.19 1014.23 1014.25
1011.42 1011.37 1011.36 1011.37 1011.41 1011.45 1011.50 1011.56 1011.63 1011.73 1011.84 1011.97 1012.12 1012.27 1012.40 1012.52 1012.61 1012.67 1012.70 1012.72 1012.72 1012.72 1012.71 1012.71 1012.71 1012.72 1012.74 1012.76 1012.80 1012.86 1012.94 1013.05 1013.19 1013.36 1013.55 1013.75 1013.94 1014.12 1014.26 1014.38 1014.46 1014.51 1014.54
1011.49 1011.33 1011.21 1011.13 1011.07 1011.04 1011.04 1011.06 1011.12 1011.21 1011.32 1011.46 1011.61 1011.76 1011.91 1012.04 1012.15 1012.25 1012.33 1012.39 1012.45 1012.50 1012.55 1012.59 1012.63 1012.67 1012.70 1012.73 1012.78 1012.83 1012.92 1013.03 1013.18 1013.37 1013.57 1013.79 1014.01 1014.21 1014.38 1014.51 1014.61 1014.67 1014.71
1011.65 1011.38 1011.15 1010.96 1010.80 1010.68 1010.60 1010.56 1010.57 1010.62 1010.71 1010.82 1010.96 1011.10 1011.25 1011.39 1011.52 1011.65 1011.77 1011.89 1012.01 1012.12 1012.23 1012.33 1012.41 1012.48 1012.53 1012.58 1012.63 1012.70 1012.79 1012.91 1013.07 1013.27 1013.49 1013.73 1013.96 1014.18 1014.37 1014.52 1014.63 1014.71 1014.76
1011.86 1011.50 1011.16 1010.85 1010.58 1010.35 1010.17 1010.05 1009.99 1009.98 1010.01 1010.08 1010.18 1010.30 1010.44 1010.58 1010.73 1010.89 1011.05 1011.23 1011.40 1011.58 1011.75 1011.90 1012.03 1012.14 1012.22 1012.29 1012.36 1012.44 1012.55 1012.69 1012.87 1013.08 1013.32 1013.58 1013.83 1014.06 1014.27 1014.44 1014.57 1014.66 1014.73
1012.09 1011.65 1011.21 1010.79 1010.41 1010.07 1009.79 1009.57 1009.41 1009.31 1009.27 1009.27 1009.32 1009.40 1009.51 1009.65 1009.81 1009.99 1010.20 1010.43 1010.66 1010.90 1011.13 1011.34 1011.52 1011.66 1011.78 1011.89 1011.98 1012.09 1012.22 1012.38 1012.58 1012.82 1013.09 1013.37 1013.64 1013.90 1014.12 1014.31 1014.46 1014.57 1014.66
1012.30 1011.79 1011.27 1010.77 1010.28 1009.84 1009.45 1009.12 1008.86 1008.66 1008.52 1008.44 1008.42 1008.45 1008.52 1008.64 1008.81 1009.02 1009.26 1009.54 1009.83 1010.13 1010.42 1010.68 1010.91 1011.10 1011.26 1011.39 1011.52 1011.66 1011.82 1012.02 1012.25 1012.52 1012.82 1013.13 1013.43 1013.71 1013.96 1014.17 1014.34 1014.48 1014.60
1012.47 1011.91 1011.33 1010.76 1010.19 1009.66 1009.17 1008.73 1008.36 1008.05 1007.81 1007.63 1007.53 1007.48 1007.51 1007.61 1007.77 1007.99 1008.27 1008.60 1008.94 1009.30 1009.64 1009.96 1010.24 1010.47 1010.68 1010.85 1011.02 1011.19 1011.39 1011.63 1011.90 1012.21 1012.55 1012.89 1013.22 1013.54 1013.82 1014.05 1014.25 1014.42 1014.57
1012.56 1011.98 1011.37 1010.74 1010.12 1009.52 1008.94 1008.41 1007.92 1007.50 1007.14 1006.86 1006.65 1006.53 1006.50 1006.56 1006.71 1006.94 1007.24 1007.61 1008.01 1008.42 1008.82 1009.19 1009.52 1009.81 1010.06 1010.28 1010.49 1010.72 1010.96 1011.24 1011.56 1011.91 1012.28 1012.67 1013.04 1013.39 1013.70 1013.98 1014.21 1014.41 1014.59
1012.56 1011.97 1011.35 1010.71 1010.05 1009.39 1008.74 1008.12 1007.54 1007.00 1006.53 1006.12 1005.81 1005.59 1005.49 1005.49 1005.61 1005.84 1006.16 1006.56 1007.00 1007.47 1007.93 1008.36 1008.75 1009.10 1009.41 1009.69 1009.95 1010.23 1010.52 1010.85 1011.22 1011.62 1012.04 1012.47 1012.88 1013.27 1013.63 1013.94 1014.21 1014.45 1014.66
1012.45 1011.87 1011.26 1010.61 1009.94 1009.25 1008.55 1007.85 1007.17 1006.53 1005.93 1005.41 1004.97 1004.65 1004.45 1004.39 1004.47 1004.68 1005.00 1005.42 1005.90 1006.41 1006.93 1007.43 1007.90 1008.32 1008.70 1009.04 1009.38 1009.72 1010.07 1010.46 1010.88 1011.33 1011.80 1012.28 1012.74 1013.18 1013.58 1013.94 1014.25 1014.53 1014.79
1012.20 1011.64 1011.05 1010.41 1009.74 1009.04 1008.30 1007.55 1006.79 1006.04 1005.33 1004.68 1004.13 1003.69 1003.39 1003.24 1003.25 1003.42 1003.73 1004.15 1004.66 1005.22 1005.80 1006.37 1006.91 1007.42 1007.88 1008.31 1008.73 1009.15 1009.58 1010.04 1010.52 1011.03 1011.56 1012.09 1012.60 1013.09 1013.54 1013.95 1014.32 1014.65 1014.94
1011.81 1011.27 1010.70 1010.09 1009.43 1008.72 1007.97 1007.17 1006.35 1005.52 1004.70 1003.94 1003.27 1002.71 1002.29 1002.05 1001.97 1002.08 1002.35 1002.76 1003.28 1003.87 1004.50 1005.14 1005.77 1006.36 1006.93 1007.46 1007.98 1008.49 1009.01 1009.55 1010.11 1010.69 1011.28 1011.87 1012.44 1012.99 1013.50 1013.97 1014.39 1014.77 1015.11
1011.26 1010.73 1010.19 1009.61 1008.97 1008.28 1007.53 1006.71 1005.85 1004.95 1004.06 1003.19 1002.41 1001.73 1001.20 1000.84 1000.67 1000.70 1000.90 1001.28 1001.78 1002.39 1003.06 1003.76 1004.46 1005.16 1005.82 1006.47 1007.10 1007.72 1008.34 1008.97 1009.61 1010.27 1010.93 1011.59 1012.23 1012.84 1013.42 1013.95 1014.43 1014.87 1015.26
1010.56 1010.05 1009.53 1008.98 1008.38 1007.71 1006.97 1006.16 1005.28 1004.35 1003.40 1002.46 1001.58 1000.81 1000.16 999.69 999.41 999.34 999.46 999.78 1000.25 1000.84 1001.53 1002.27 1003.04 1003.81 1004.58 1005.34 1006.08 1006.81 1007.54 1008.27 1009.01 1009.75 1010.49 1011.23 1011.94 1012.62 1013.26 1013.86 1014.41 1014.91 1015.35
1009.75 1009.25 1008.74 1008.22 1007.66 1007.03 1006.33 1005.54 1004.67 1003.74 1002.77 1001.79 1000.85 999.98 999.25 998.67 998.28 998.09 998.12 998.34 998.75 999.30 999.98 1000.73 1001.54 1002.39 1003.24 1004.09 1004.94 1005.78 1006.62 1007.46 1008.29 1009.12 1009.94 1010.75 1011.54 1012.29 1013.01 1013.68 1014.29 1014.85 1015.35
1008.86 1008.36 1007.86 1007.37 1006.84 1006.26 1005.61 1004.87 1004.05 1003.14 1002.18 1001.19 1000.22 999.30 998.49 997.82 997.32 997.03 996.94 997.06 997.38 997.87 998.50 999.24 1000.06 1000.94 1001.85 1002.78 1003.72 1004.66 1005.59 1006.52 1007.45 1008.36 1009.27 1010.15 1011.01 1011.84 1012.63 1013.36 1014.05 1014.67 1015.23
1007.92 1007.41 1006.93 1006.45 1005.97 1005.44 1004.84 1004.17 1003.40 1002.55 1001.63 1000.66 999.69 998.75 997.89 997.15 996.56 996.16 995.96 995.97 996.18 996.58 997.14 997.84 998.65 999.53 1000.47 1001.46 1002.46 1003.47 1004.49 1005.50 1006.51 1007.50 1008.48 1009.44 1010.37 1011.26 1012.12 1012.92 1013.67 1014.35 1014.97
1006.98 1006.46 1005.97 1005.52 1005.06 1004.58 1004.05 1003.44 1002.74 1001.96 1001.09 1000.17 999.22 998.28 997.40 996.61 995.95 995.46 995.16 995.06 995.17 995.47 995.95 996.58 997.34 998.22 999.16 1000.17 1001.22 1002.29 1003.36 1004.44 1005.52 1006.58 1007.62 1008.65 1009.63 1010.59 1011.50 1012.36 1013.17 1013.91 1014.58
1006.05 1005.52 1005.03 1004.59 1004.15 1003.70 1003.21 1002.66 1002.03 1001.31 1000.51 999.64 998.73 997.81 996.93 996.11 995.41 994.86 994.47 994.28 994.29 994.50 994.90 995.46 996.18 997.02 997.96 998.97 1000.05 1001.15 1002.28 1003.41 1004.54 1005.66 1006.75 1007.82 1008.86 1009.87 1010.83 1011.74 1012.59 1013.38 1014.08
1005.17 1004.62 1004.13 1003.68 1003.25 1002.82 1002.35 1001.83 1001.24 1000.57 999.82 999.00 998.13 997.24 996.37 995.55 994.83 994.23 993.80 993.55 993.49 993.63 993.96 994.47 995.14 995.96 996.89 997.91 999.00 1000.14 1001.30 1002.47 1003.64 1004.80 1005.94 1007.05 1008.13 1009.17 1010.17 1011.11 1011.99 1012.81 1013.55
1004.34 1003.78 1003.27 1002.81 1002.37 1001.92 1001.46 1000.94 1000.37 999.72 998.99 998.20 997.36 996.50 995.65 994.85 994.12 993.52 993.06 992.78 992.69 992.80 993.10 993.58 994.24 995.05 995.98 997.02 998.13 999.29 1000.48 1001.69 1002.90 1004.09 1005.26 1006.40 1007.50 1008.56 1009.58 1010.54 1011.44 1012.27 1013.02
1003.56 1003.00 1002.48 1001.99 1001.52 1001.05 1000.56 1000.02 999.43 998.77 998.04 997.26 996.43 995.59 994.76 993.98 993.28 992.69 992.25 991.97 991.89 992.00 992.31 992.81 993.48 994.30 995.26 996.32 997.47 998.66 999.89 1001.13 1002.37 1003.58 1004.77 1005.92 1007.03 1008.10 1009.11 1010.07 1010.97 1011.80 1012.55
Thickness
5714 5712 5709 5706 5703 5700 5697 5695 5692 5690 5688 5685 5682 5679 5677 5674 5671 5668 5666 5664 5662 5660 5659 5659 5658 5659 5659 5660 5660 5662 5663 5664 5665 5668 5673 5679 5682 5686 5689 5692 5696 5699 5702
5714 5711 5708 5706 5703 5700 5697 5695 5693 5690 5688 5685 5683 5680 5677 5674 5671 5669 5666 5664 5662 5661 5659 5659 5658 5659 5658 5659 5659 5660 5661 5663 5664 5665 5669 5673 5677 5681 5684 5687 5690 5694 5696
5714 5710 5707 5704 5702 5699 5698 5696 5693 5691 5688 5685 5682 5680 5677 5674 5672 5669 5667 5665 5663 5661 5660 5659 5659 5659 5658 5658 5658 5659 5660 5662 5663 5663 5665 5668 5672 5675 5678 5682 5685 5688 5691
5712 5709 5706 5704 5702 5700 5698 5696 5693 5690 5687 5685 5682 5680 5677 5675 5672 5670 5667 5665 5663 5662 5661 5660 5659 5659 5659 5658 5658 5658 5659 5659 5660 5661 5661 5663 5666 5670 5672 5674 5677 5680 5683
5711 5708 5706 5705 5702 5699 5697 5695 5692 5690 5688 5685 5682 5680 5677 5675 5673 5670 5668 5666 5664 5662 5661 5661 5660 5660 5660 5659 5659 5658 5657 5657 5657 5657 5658 5659 5661 5664 5666 5669 5670 5673 5676
5710 5707 5706 5703 5700 5698 5696 5693 5691 5688 5686 5684 5681 5679 5677 5676 5675 5673 5669 5666 5664 5662 5661 5660 5660 5660 5661 5661 5660 5660 5658 5656 5656 5655 5655 5656 5658 5660 5662 5663 5664 5666 5668
5708 5706 5704 5701 5698 5696 5694 5691 5689 5687 5685 5682 5680 5678 5676 5675 5675 5673 5671 5666 5664 5662 5660 5659 5660 5660 5659 5659 5659 5659 5658 5658 5658 5656 5655 5655 5656 5658 5658 5659 5660 5661 5662
5705 5703 5701 5698 5696 5694 5691 5689 5687 5685 5683 5681 5679 5677 5675 5674 5674 5672 5670 5666 5663 5661 5660 5658 5657 5657 5657 5656 5655 5654 5654 5654 5655 5655 5655 5655 5655 5656 5656 5656 5656 5656 5657
5700 5699 5698 5696 5693 5691 5689 5687 5685 5683 5681 5679 5677 5675 5673 5672 5672 5671 5668 5663 5661 5659 5658 5657 5656 5655 5656 5655 5652 5651 5650 5651 5652 5653 5653 5652 5652 5652 5652 5651 5650 5649 5650
5695 5695 5694 5692 5690 5688 5687 5685 5683 5681 5679 5677 5675 5673 5672 5670 5670 5668 5666 5661 5658 5656 5655 5655 5655 5654 5654 5653 5650 5648 5647 5647 5647 5648 5647 5647 5646 5646 5646 5646 5645 5644 5643
5690 5689 5688 5687 5686 5685 5683 5681 5679 5677 5675 5673 5672 5671 5669 5668 5667 5666 5663 5659 5657 5654 5652 5651 5651 5652 5651 5650 5648 5646 5645 5644 5643 5642 5641 5640 5639 5639 5639 5639 5639 5639 5638
5682 5681 5681 5681 5680 5680 5676 5675 5673 5671 5669 5668 5667 5666 5665 5664 5663 5662 5660 5658 5655 5652 5650 5649 5648 5648 5647 5646 5644 5643 5642 5640 5637 5635 5634 5632 5632 5632 5632 5632 5632 5632 5632
5674 5673 5673 5673 5672 5672 5670 5668 5666 5664 5663 5663 5661 5661 5660 5660 5659 5658 5657 5655 5653 5649 5648 5647 5645 5644 5642 5640 5639 5638 5636 5633 5631 5629 5627 5626 5625 5625 5625 5624 5624 5624 5623
5664 5665 5665 5664 5664 5663 5663 5662 5660 5658 5657 5657 5656 5656 5655 5653 5653 5652 5651 5649 5648 5645 5642 5641 5639 5637 5635 5633 5632 5630 5628 5627 5625 5623 5621 5619 5618 5617 5617 5616 5616 5615 5614
5654 5655 5655 5655 5655 5654 5654 5654 5654 5655 5654 5654 5654 5652 5649 5649 5651 5649 5646 5644 5642 5640 5636 5633 5630 5628 5626 5624 5623 5621 5620 5619 5617 5615 5614 5612 5611 5610 5608 5608 5607 5606 5604
5643 5644 5644 5644 5644 5644 5644 5644 5645 5645 5647 5648 5648 5647 5647 5647 5646 5643 5641 5639 5637 5634 5630 5627 5625 5622 5621 5619 5616 5614 5612 5611 5610 5609 5607 5605 5604 5602 5600 5599 5598 5596 5594
5632 5633 5633 5633 5633 5633 5632 5633 5633 5635 5636 5637 5638 5638 5638 5638 5637 5636 5634 5631 5629 5627 5623 5622 5620 5618 5616 5613 5611 5609 5606 5604 5602 5601 5599 5597 5595 5594 5592 5590 5588 5586 5584
5619 5620 5621 5621 5621 5621 5621 5622 5622 5623 5624 5626 5627 5628 5629 5629 5628 5627 5624 5620 5618 5617 5617 5617 5615 5613 5610 5607 5605 5602 5599 5596 5594 5593 5591 5588 5587 5585 5582 5580 5578 5576 5574
5604 5605 5606 5607 5608 5608 5609 5609 5610 5611 5612 5614 5615 5616 5618 5617 5617 5616 5614 5612 5613 5612 5610 5609 5608 5606 5603 5601 5598 5595 5592 5589 5587 5584 5582 5580 5578 5575 5573 5570 5567 5566 5563
5589 5591 5592 5592 5593 5594 5595 5596 5597 5598 5600 5602 5604 5606 5605 5603 5603 5604 5604 5605 5605 5605 5604 5603 5601 5599 5597 5594 5591 5587 5584 5581 5578 5576 5573 5571 5568 5566 5564 5560 5558 5555 5553
5573 5574 5577 5577 5578 5579 5581 5583 5585 5587 5588 5591 5595 5596 5596 5596 5597 5597 5597 5597 5597 5597 5597 5595 5593 5591 5589 5586 5583 5579 5576 5573 5570 5567 5564 5562 5559 5556 5553 5551 5548 5545 5543
5557 5558 5560 5561 5563 5565 5568 5570 5572 5574 5577 5580 5582 5583 5584 5584 5587 5588 5589 5590 5590 5589 5588 5587 5585 5583 5581 5578 5575 5572 5568 5565 5562 5559 5556 5552 5550 5547 5543 5540 5537 5535 5533
5542 5543 5545 5547 5549 5552 5554 5557 5559 5562 5565 5568 5569 5571 5572 5574 5576 5578 5580 5580 5580 5578 5577 5576 5575 5573 5571 5569 5567 5566 5563 5559 5556 5553 5548 5544 5540 5537 5534 5531 5528 5525 5522
5527 5528 5530 5533 5535 5537 5540 5544 5547 5550 5552 5555 5558 5560 5563 5565 5566 5568 5569 5569 5568 5568 5567 5566 5566 5564 5562 5559 5557 5555 5554 5551 5547 5544 5540 5536 5532 5528 5524 5521 5518 5515 5513
5513 5514 5517 5519 5522 5525 5528 5531 5535 5538 5541 5544 5547 5550 5552 5554 5556 5557 5558 5557 5557 5557 5556 5555 5554 5553 5552 5550 5548 5545 5543 5540 5537 5534 5530 5527 5522 5518 5515 5511 5508 5505 5502
5500 5501 5504 5506 5509 5512 5516 5519 5523 5527 5530 5534 5537 5540 5542 5544 5545 5546 5546 5546 5546 5545 5545 5544 5544 5543 5541 5539 5538 5535 5533 5529 5526 5523 5520 5516 5512 5508 5505 5501 5498 5495 5492